Location: Walnut Point State Park
(39.6958°N, 88.0345°W)
Time: 10:10:00
(UTC-05:00)

Cosmos 1833 Rocket - Visible Passes

Search period start: 30 July 2014 00:00
Search period end: 09 August 2014 00:00
Orbit: 834 x 839 km, 71.0° (Epoch: 30 July)

Date Brightness Start Highest point End Pass type
(mag) Time Alt. Az. Time Alt. Az. Time Alt. Az.
30 Jul 3.3 04:34:47 10° NNW 04:40:21 61° ENE 04:45:52 10° SE visible
31 Jul 3.4 04:18:13 10° NNW 04:23:45 56° ENE 04:29:14 10° SE visible
31 Jul 6.3 20:57:38 10° NW 20:58:04 10° NW 20:58:31 10° NW visible
01 Aug 3.5 04:01:40 10° NNW 04:07:08 52° ENE 04:12:35 10° SE visible
01 Aug 6.2 20:39:55 10° WNW 20:41:23 11° NW 20:42:52 10° NNW visible
02 Aug 3.7 03:45:07 10° NNW 03:50:32 48° ENE 03:55:55 10° SE visible
03 Aug 3.8 03:28:34 10° N 03:33:55 44° ENE 03:39:15 10° SE visible
03 Aug 3.7 05:13:06 10° NW 05:17:32 24° WSW 05:21:57 10° SSW visible
04 Aug 3.9 03:12:01 10° N 03:17:19 41° ENE 03:22:34 10° SE visible
04 Aug 3.6 04:56:24 10° NW 05:01:00 27° WSW 05:05:35 10° SSW visible
05 Aug 4.0 02:55:29 10° N 03:00:42 38° ENE 03:05:52 10° SE visible
05 Aug 3.5 04:39:42 10° NW 04:44:27 29° WSW 04:49:11 10° SSW visible
06 Aug 4.1 02:38:58 10° N 02:44:05 35° ENE 02:49:09 10° SE visible
06 Aug 3.4 04:23:00 10° NW 04:27:54 32° WSW 04:30:49 20° SSW visible
07 Aug 4.2 02:22:26 10° N 02:27:27 32° ENE 02:31:02 17° ESE visible
07 Aug 3.3 04:06:20 10° NW 04:11:21 34° WSW 04:12:36 31° SW visible
08 Aug 4.3 02:05:55 10° N 02:10:50 30° ENE 02:13:17 22° E visible
08 Aug 3.1 03:49:40 10° NW 03:54:47 38° WSW 03:54:53 38° WSW visible
